TimeCDT,TemperatureF,Dew PointF,Humidity,Sea Level PressureIn,VisibilityMPH,Wind Direction,Wind SpeedMPH,Gust SpeedMPH,PrecipitationIn,Events,Conditions,WindDirDegrees,DateUTC
12:51 AM,79.0,73.0,82,29.78,10.0,SE,21.9,28.8,N/A,,Scattered Clouds,140,2013-05-20 05:51:00
1:47 AM,78.8,73.4,83,29.78,10.0,SE,23.0,28.8,N/A,,Mostly Cloudy,140,2013-05-20 06:47:00
1:51 AM,79.0,73.0,82,29.78,10.0,SE,21.9,-,N/A,,Mostly Cloudy,140,2013-05-20 06:51:00
2:51 AM,79.0,73.0,82,29.78,10.0,SSE,19.6,27.6,N/A,,Overcast,150,2013-05-20 07:51:00
3:51 AM,79.0,73.0,82,29.78,10.0,SSE,18.4,-,N/A,,Overcast,160,2013-05-20 08:51:00
4:12 AM,78.8,73.4,83,29.78,10.0,SSE,15.0,-,N/A,,Overcast,160,2013-05-20 09:12:00
4:39 AM,78.8,73.4,83,29.79,10.0,SSE,17.3,-,N/A,,Overcast,160,2013-05-20 09:39:00
4:51 AM,79.0,72.0,79,29.78,10.0,SSE,20.7,-,N/A,,Overcast,160,2013-05-20 09:51:00
5:28 AM,78.8,71.6,78,29.79,10.0,SSE,18.4,25.3,N/A,,Overcast,160,2013-05-20 10:28:00
5:51 AM,79.0,72.0,79,29.78,10.0,SSE,19.6,-,N/A,,Overcast,160,2013-05-20 10:51:00
6:51 AM,79.0,72.0,79,29.80,8.0,SSE,18.4,-,N/A,,Overcast,150,2013-05-20 11:51:00
7:51 AM,80.1,72.0,76,29.81,8.0,SSE,21.9,-,N/A,,Mostly Cloudy,160,2013-05-20 12:51:00
8:51 AM,81.0,72.0,74,29.82,10.0,SSE,20.7,-,N/A,,Mostly Cloudy,150,2013-05-20 13:51:00
9:51 AM,82.9,72.0,69,29.84,10.0,SSE,24.2,28.8,N/A,,Mostly Cloudy,150,2013-05-20 14:51:00
10:51 AM,84.9,72.0,65,29.83,10.0,SSE,23.0,32.2,N/A,,Mostly Cloudy,150,2013-05-20 15:51:00
11:51 AM,87.1,72.0,61,29.83,10.0,SSE,24.2,33.4,N/A,,Mostly Cloudy,150,2013-05-20 16:51:00
12:51 PM,89.6,71.6,55,29.81,10.0,SSE,20.7,35.7,N/A,,Mostly Cloudy,150,2013-05-20 17:51:00
1:51 PM,91.9,71.1,50,29.78,10.0,SSE,27.6,36.8,N/A,,Scattered Clouds,160,2013-05-20 18:51:00
2:51 PM,91.9,71.1,50,29.78,10.0,SSE,27.6,36.8,N/A,,Scattered Clouds,150,2013-05-20 19:51:00
3:51 PM,91.4,71.6,52,29.76,10.0,SE,28.8,36.8,N/A,,Scattered Clouds,130,2013-05-20 20:51:00
4:51 PM,89.1,72.0,57,29.74,10.0,ESE,24.2,33.4,N/A,,Partly Cloudy,120,2013-05-20 21:51:00
5:51 PM,87.1,72.0,61,29.73,10.0,SE,25.3,-,N/A,,Partly Cloudy,130,2013-05-20 22:51:00
6:51 PM,84.0,73.0,69,29.72,10.0,SE,23.0,-,N/A,,Partly Cloudy,130,2013-05-20 23:51:00
7:51 PM,82.0,73.0,74,29.74,10.0,SE,19.6,-,N/A,,Scattered Clouds,130,2013-05-21 00:51:00
8:40 PM,80.6,73.4,79,29.75,10.0,SSE,18.4,-,N/A,,Mostly Cloudy,150,2013-05-21 01:40:00
8:51 PM,81.0,73.0,77,29.75,10.0,SSE,23.0,-,N/A,,Mostly Cloudy,150,2013-05-21 01:51:00
9:51 PM,81.0,73.0,77,29.77,10.0,SSE,20.7,25.3,N/A,,Overcast,150,2013-05-21 02:51:00
10:51 PM,81.0,73.9,79,29.79,10.0,SSE,20.7,27.6,N/A,,Overcast,150,2013-05-21 03:51:00
11:48 PM,80.6,73.4,79,29.79,10.0,SE,16.1,-,N/A,,Scattered Clouds,140,2013-05-21 04:48:00
11:51 PM,80.1,73.0,79,29.79,10.0,SE,18.4,-,N/A,,Scattered Clouds,140,2013-05-21 04:51:00